User: anonymous   Login
Location: Kelshall
(52.0000°N, 0.0500°W)
Time: 03:17:31
(UTC+00:00)
Language:

Okean 1 Rocket - Orbit

View from above orbital plane
View from above orbital plane
View from above satellite
View from above satellite

Ground track
Ground track

The orbit data is extracted from the following two-line orbital elements,

1 19275U 88056B   20329.49214582  .00000108  00000-0  10425-4 0  9997
2 19275  82.5177 235.1887 0020894  32.1839 328.0646 14.82765777749417
Epoch (UTC): 24 November 2020 11:48:41
Eccentricity: 0.0020894
inclination: 82.5177°
perigee height: 606 km
apogee height: 635 km
right ascension of ascending node: 235.1887°
argument of perigee: 32.1839°
revolutions per day: 14.82765777
mean anomaly at epoch: 328.0646°
orbit number at epoch: 74941

The dashed part of the orbit path shows where the satellite is in the earth's shadow,  

DLR